Hourly Weather Belyaevka

Today, 5 August, Wednesday

Time Temperature Precipitation Wind Pressure Humidity
00:00 +21°C° 0 mm 1 mps 753 mmHg 66%
01:00 +21°C° 0 mm 1 mps 753 mmHg 67%
02:00 +19°C° 0 mm 2 mps 753 mmHg 70%
03:00 +19°C° 0 mm 2 mps 753 mmHg 71%
04:00 +19°C° 0 mm 2 mps 753 mmHg 72%
05:00 +19°C° 0 mm 3 mps 754 mmHg 73%
06:00 +21°C° 0 mm 4 mps 754 mmHg 65%
07:00 +23°C° 0 mm 4 mps 754 mmHg 58%
08:00 +27°C° 0 mm 4 mps 754 mmHg 50%
09:00 +28°C° 0 mm 5 mps 754 mmHg 44%
10:00 +29°C° 0 mm 5 mps 754 mmHg 38%
11:00 +32°C° 0 mm 5 mps 754 mmHg 32%
12:00 +32°C° 0 mm 5 mps 754 mmHg 30%
13:00 +32°C° 0 mm 5 mps 754 mmHg 29%
14:00 +33°C° 0 mm 5 mps 754 mmHg 27%
15:00 +33°C° 0 mm 4 mps 754 mmHg 27%
16:00 +33°C° 0 mm 3 mps 754 mmHg 27%
17:00 +33°C° 0 mm 3 mps 753 mmHg 28%
18:00 +30°C° 0 mm 2 mps 754 mmHg 32%
19:00 +28°C° 0 mm 2 mps 754 mmHg 37%
20:00 +26°C° 0 mm 2 mps 754 mmHg 42%
21:00 +25°C° 0 mm 2 mps 754 mmHg 44%
22:00 +24°C° 0 mm 1 mps 754 mmHg 45%
23:00 +24°C° 0 mm 1 mps 754 mmHg 47%

Tomorrow, 6 August, Thursday

Time Temperature Precipitation Wind Pressure Humidity
00:00 +23°C° 0 mm 2 mps 755 mmHg 48%
01:00 +23°C° 0 mm 2 mps 755 mmHg 49%
02:00 +22°C° 0 mm 3 mps 755 mmHg 50%
03:00 +21°C° 0 mm 3 mps 755 mmHg 52%
04:00 +21°C° 0 mm 4 mps 755 mmHg 53%
05:00 +21°C° 0 mm 4 mps 755 mmHg 55%
06:00 +23°C° 0 mm 5 mps 755 mmHg 51%
07:00 +26°C° 0 mm 5 mps 756 mmHg 48%
08:00 +28°C° 0 mm 6 mps 756 mmHg 44%
09:00 +29°C° 0 mm 6 mps 756 mmHg 40%
10:00 +30°C° 0 mm 6 mps 756 mmHg 36%
11:00 +33°C° 0 mm 6 mps 756 mmHg 32%
12:00 +33°C° 0 mm 5 mps 756 mmHg 30%
13:00 +34°C° 0 mm 5 mps 756 mmHg 29%
14:00 +35°C° 0 mm 4 mps 756 mmHg 27%
15:00 +35°C° 0 mm 4 mps 756 mmHg 28%
16:00 +35°C° 0 mm 4 mps 756 mmHg 28%
17:00 +35°C° 0 mm 4 mps 755 mmHg 29%
18:00 +33°C° 0 mm 3 mps 756 mmHg 34%
19:00 +30°C° 0 mm 3 mps 756 mmHg 39%
20:00 +28°C° 0 mm 3 mps 756 mmHg 43%
21:00 +27°C° 0 mm 3 mps 756 mmHg 46%
22:00 +27°C° 0 mm 3 mps 756 mmHg 49%
23:00 +26°C° 0 mm 4 mps 756 mmHg 52%

Day after tomorrow, 7 August, Friday

Time Temperature Precipitation Wind Pressure Humidity
00:00 +26°C° 0 mm 4 mps 756 mmHg 53%
01:00 +25°C° 0 mm 5 mps 756 mmHg 53%
02:00 +25°C° 0 mm 5 mps 756 mmHg 54%
03:00 +25°C° 0 mm 5 mps 756 mmHg 57%
04:00 +25°C° 0 mm 5 mps 756 mmHg 59%
05:00 +23°C° 0 mm 5 mps 756 mmHg 61%
06:00 +26°C° 0 mm 6 mps 756 mmHg 58%
07:00 +28°C° 0 mm 6 mps 757 mmHg 54%
08:00 +29°C° 0 mm 6 mps 757 mmHg 51%
09:00 +32°C° 0 mm 6 mps 757 mmHg 46%
10:00 +33°C° 0 mm 6 mps 757 mmHg 41%
11:00 +35°C° 0 mm 6 mps 757 mmHg 37%
12:00 +36°C° 0 mm 6 mps 757 mmHg 34%
13:00 +36°C° 0 mm 6 mps 756 mmHg 32%
14:00 +38°C° 0 mm 6 mps 756 mmHg 29%
15:00 +36°C° 0 mm 5 mps 756 mmHg 29%
16:00 +36°C° 0 mm 5 mps 755 mmHg 29%
17:00 +36°C° 0 mm 5 mps 755 mmHg 29%
18:00 +34°C° 0 mm 5 mps 755 mmHg 32%
19:00 +32°C° 0 mm 5 mps 755 mmHg 35%
20:00 +30°C° 0 mm 5 mps 755 mmHg 38%
21:00 +29°C° 0 mm 6 mps 755 mmHg 42%
22:00 +28°C° 0 mm 6 mps 755 mmHg 45%
23:00 +28°C° 0 mm 6 mps 755 mmHg 49%

8 August, Saturday

Time Temperature Precipitation Wind Pressure Humidity
00:00 +27°C° 0 mm 6 mps 755 mmHg 55%
01:00 +26°C° 0 mm 6 mps 755 mmHg 61%
02:00 +26°C° 0 mm 6 mps 755 mmHg 67%
03:00 +24°C° 0 mm 6 mps 755 mmHg 70%
04:00 +23°C° 0 mm 6 mps 755 mmHg 73%
05:00 +23°C° 0 mm 6 mps 755 mmHg 75%
06:00 +24°C° 0 mm 6 mps 755 mmHg 71%
07:00 +26°C° 0 mm 6 mps 755 mmHg 66%
08:00 +27°C° 0 mm 6 mps 755 mmHg 62%
09:00 +29°C° 0 mm 6 mps 755 mmHg 55%
10:00 +32°C° 0 mm 6 mps 755 mmHg 48%
11:00 +33°C° 0 mm 6 mps 755 mmHg 42%
12:00 +33°C° 0 mm 6 mps 755 mmHg 42%
13:00 +33°C° 0 mm 6 mps 755 mmHg 42%
14:00 +33°C° 0 mm 5 mps 754 mmHg 42%
15:00 +33°C° 0 mm 5 mps 754 mmHg 41%
16:00 +33°C° 0 mm 6 mps 754 mmHg 40%
17:00 +33°C° 0 mm 6 mps 754 mmHg 39%
18:00 +30°C° 0 mm 6 mps 754 mmHg 41%
19:00 +29°C° 0 mm 5 mps 754 mmHg 43%
20:00 +28°C° 0 mm 5 mps 754 mmHg 45%
21:00 +27°C° 0 mm 6 mps 754 mmHg 47%
22:00 +26°C° 0 mm 6 mps 754 mmHg 48%
23:00 +24°C° 0 mm 6 mps 754 mmHg 50%

9 August, Sunday

Time Temperature Precipitation Wind Pressure Humidity
00:00 +23°C° 0 mm 6 mps 754 mmHg 52%
01:00 +23°C° 0 mm 6 mps 754 mmHg 54%
02:00 +22°C° 0 mm 5 mps 754 mmHg 56%
03:00 +21°C° 0 mm 5 mps 753 mmHg 60%
04:00 +21°C° 0 mm 5 mps 753 mmHg 63%
05:00 +20°C° 0 mm 5 mps 753 mmHg 67%
06:00 +22°C° 0 mm 6 mps 754 mmHg 61%
07:00 +23°C° 0 mm 6 mps 754 mmHg 56%
08:00 +26°C° 0 mm 7 mps 754 mmHg 50%
09:00 +27°C° 0 mm 7 mps 754 mmHg 45%
10:00 +29°C° 0 mm 7 mps 754 mmHg 41%
11:00 +30°C° 0 mm 6 mps 754 mmHg 36%
12:00 +32°C° 0 mm 6 mps 753 mmHg 34%
13:00 +33°C° 0 mm 6 mps 753 mmHg 32%
14:00 +33°C° 0 mm 6 mps 753 mmHg 30%
15:00 +33°C° 0 mm 6 mps 753 mmHg 30%
16:00 +33°C° 0 mm 6 mps 753 mmHg 30%
17:00 +32°C° 0 mm 6 mps 752 mmHg 30%
18:00 +30°C° 0 mm 5 mps 752 mmHg 34%
19:00 +28°C° 0 mm 5 mps 753 mmHg 37%
20:00 +26°C° 0 mm 4 mps 753 mmHg 41%
21:00 +25°C° 0 mm 5 mps 753 mmHg 44%
22:00 +25°C° 0 mm 5 mps 753 mmHg 46%
23:00 +23°C° 0 mm 5 mps 753 mmHg 49%

10 August, Monday

Time Temperature Precipitation Wind Pressure Humidity
00:00 +22°C° 0 mm 5 mps 753 mmHg 52%
01:00 +21°C° 0 mm 5 mps 753 mmHg 54%
02:00 +21°C° 0 mm 4 mps 753 mmHg 56%
03:00 +20°C° 0 mm 4 mps 753 mmHg 58%
04:00 +19°C° 0 mm 4 mps 753 mmHg 60%
05:00 +19°C° 0 mm 4 mps 753 mmHg 62%
06:00 +21°C° 0 mm 4 mps 753 mmHg 56%
07:00 +23°C° 0 mm 4 mps 754 mmHg 49%
08:00 +26°C° 0 mm 4 mps 754 mmHg 43%
09:00 +27°C° 0 mm 4 mps 754 mmHg 39%
10:00 +29°C° 0 mm 4 mps 754 mmHg 35%
11:00 +30°C° 0 mm 4 mps 754 mmHg 30%
12:00 +30°C° 0 mm 4 mps 754 mmHg 30%
13:00 +30°C° 0 mm 4 mps 754 mmHg 30%
14:00 +30°C° 0 mm 3 mps 754 mmHg 30%
15:00 +30°C° 0 mm 3 mps 754 mmHg 30%
16:00 +30°C° 0 mm 3 mps 753 mmHg 29%
17:00 +30°C° 0 mm 3 mps 753 mmHg 29%
18:00 +29°C° 0 mm 3 mps 754 mmHg 32%
19:00 +27°C° 0 mm 4 mps 754 mmHg 36%
20:00 +26°C° 0 mm 4 mps 754 mmHg 39%
21:00 +25°C° 0 mm 4 mps 754 mmHg 43%
22:00 +23°C° 0 mm 4 mps 754 mmHg 46%
23:00 +22°C° 0 mm 4 mps 754 mmHg 50%
Show more